Home   Weather   Kvernaland   Past weeks
Flag for Norway

Past Weather in Kvernaland, Norway — Yesterday and Last 2 Weeks

Now
56 °F

Overcast.


Feels Like: 54 °F
Forecast: 52 / 44 °F
Wind: 9 mph from Southeast

Location: Stavanger / Sola

Current Time: Oct 17, 2019 at 12:39:12 pm

Latest Report: Oct 17, 2019 at 11:00 am


Visibility: 47 mi

Pressure: 29.57 "Hg

Humidity: 67%

Dew Point: 45 °F

Location of KvernalandLocation

Past Weather in Kvernaland — Graph

°F

Kvernaland Temperature Yesterday

Maximum temperature yesterday: 55 °F (at 1:00 am)
Minimum temperature yesterday: 52 °F (at 8:00 am)
Average temperature yesterday: 53 °F

High & Low Weather Summary for the Past Weeks

 TemperatureHumidityPressure
High56 °F (Oct 2, 4:00 pm)94% (Oct 9, 1:00 am)30.27 "Hg (Oct 9, 1:00 am)
Low32 °F (Oct 5, 7:00 am)41% (Oct 5, 1:00 pm)29.23 "Hg (Oct 9, 5:00 am)
Average49 °F78%29.71 "Hg
* Reported Oct 2 11:00 am — Oct 17 11:00 am, Kvernaland. Weather by CustomWeather, © 2019

Note: Actual official high and low records may vary slightly from our data, if they occured in-between our weather recording intervals... More about our weather records

Advertising

Kvernaland Weather History for the Previous 24 Hours

Scroll right to see more
 ConditionsComfort  
Time TempWeatherWind HumidityBarometerVisibility
11:00 am
Thu, Oct 17
56 °FOvercast.9 mph67%29.57 "Hg47 mi
10:00 am55 °FLow clouds.7 mph68%29.57 "Hg37 mi
9:00 am55 °FOvercast.7 mph69%29.57 "Hg47 mi
8:00 am53 °FRain showers. Overcast.3 mph76%29.57 "Hg31 mi
7:00 am52 °FLight rain. Overcast.3 mph84%29.57 "Hg14 mi
6:00 am53 °FRain showers. Overcast.3 mph78%29.59 "Hg19 mi
5:00 am53 °FRain showers. Overcast.3 mph74%29.59 "Hg34 mi
4:00 am52 °FLight rain. Overcast.2 mph75%29.62 "Hg19 mi
3:00 am52 °FOvercast.3 mph72%29.63 "Hg47 mi
2:00 am51 °FOvercast.5 mph72%29.64 "Hg47 mi
1:00 amN/APassing clouds.N/AN/AN/A37 mi
12:00 am49 °FPassing clouds.5 mph81%29.66 "Hg47 mi
11:00 pm
Wed, Oct 16
52 °FOvercast.3 mph75%29.66 "Hg47 mi
10:00 pm53 °FOvercast.3 mph77%29.67 "Hg40 mi
9:00 pmN/AOvercast.N/AN/AN/A40 mi
8:00 pm53 °FOvercast.2 mph81%29.67 "Hg37 mi
7:00 pm53 °FOvercast.5 mph84%29.67 "Hg47 mi
6:00 pm53 °FOvercast.3 mph86%29.67 "Hg47 mi
5:00 pm53 °FOvercast.5 mph86%29.67 "Hg40 mi
4:00 pm53 °FOvercast.6 mph93%29.68 "Hg9 mi
3:00 pm53 °FLow clouds.5 mph89%29.69 "Hg37 mi
2:00 pm55 °FOvercast.7 mph81%29.68 "Hg37 mi
1:00 pm54 °FPartly sunny.8 mph79%29.67 "Hg40 mi
12:00 pm54 °FOvercast.5 mph81%29.67 "Hg47 mi
Weather by CustomWeather, © 2019

See weather overview